Location: Goettingen
(51.5300°N, 9.9433°E)
Time: 20:46:42
(UTC+02:00)

ISS - Pass Details

Date: 18 July 2019
Orbit: 409 x 418 km, 51.6° (Epoch: 20 July)

Event Time Altitude Azimuth Distance (km) Brightness Sun altitude
Rises 03:04:50 0° 283° (WNW) 2,349 -0.1 -14.2°
Reaches altitude 10° 03:06:57 10° 279° (W) 1,484 -1.1 -14.1°
Maximum altitude 03:10:13 56° 200° (SSW) 495 -3.8 -13.9°
Drops below altitude 10° 03:13:28 10° 121° (ESE) 1,475 -1.0 -13.7°
Sets 03:15:34 0° 117° (ESE) 2,333 0.0 -13.5°
